Gulca Şehri

China     43˚56′02″N   81˚17′57″E
temp.,
°C
wind,
m/s
gust,
m/s
humid.,
%
clouds,
%
prec.,
mm/h
press.,
hPa
HPBL,
m
28 november, sat
sat2800:00n1154100 0.0 102822
03:00−1˚e0158100 0.0 102621
06:00−1˚ese1258100 0.0 102622
09:00+2˚e2257100 0.0 102422
12:00+5˚w3355100 0.0 1023126
15:00+2˚w101671100 0.0 10291136
18:00nw51398100 6.2 1038903
21:00−1˚n369291 2.3 1041261
29 november, sun
sun2900:00−2˚nnw238681 2.8 104263
03:00−3˚nne238492 0.1 104226
06:00−3˚ne128596 0.1 104323
09:00−3˚ese1297100 0.6 104493
12:00−1˚ene1187100 0.8 1043228
15:00−1˚ne1183100 0.1 1043225
18:00−4˚ne228677 0.3 104521
21:00−5˚e228683 0.3 104521
30 november, mon
mon3000:00−6˚ne238291 0.4 104422
03:00−7˚ene228264 0.0 104321
06:00−7˚ne118260 0.0 104321
09:00−6˚e2281100 0.1 104333
12:00−5˚e347584 0.1 1041255
15:00−5˚ene22752 0.0 1040152
18:00−7˚ne22732 0.0 104221
21:00−9˚ene22703 0.0 104221
1 december, tue
tue100:00−9˚ene23662 0.0 104124
03:00−10˚ene12640 0.0 104021
06:00−10˚ne12620 0.0 104121
09:00−10˚ene22640 0.0 104226
12:00−6˚ese23640 0.0 1040174
15:00−5˚e24700 0.0 1039163
18:00−8˚ne44610 0.0 104140
21:00−8˚ne445716 0.0 104138
2 december, wed
wed200:00−8˚ne445241 0.0 104131
03:00−8˚ne34480 0.0 104126
06:00−9˚ene22480 0.0 104121
09:00−8˚ne23480 0.0 104121
12:00−4˚e23510 0.0 1038173
15:00−3˚ene12580 0.0 103649
18:00−6˚nne22460 0.0 103722
21:00−7˚ne12410 0.0 103621